Meteo Giornale » Osservazioni meteo Finlandia » Jyvaskyla
ore: 00:20 - Osservazioni Meteo Jyvaskyla
Lat. 62° 24' N Lon. 25° 41' E Alt. 141 metri s.l.m.
13 °C
Nebbia
Temp. 24 Ore
12 °C
18 °C
Nord
1.8 Km/h
Dew point 13 °C
Umidità 100 %
Visibilità 0.5 Km
Il sole sorge alle ore 06:05
Il sole tramonta alle ore 20:28
| Data e Ora | Cielo e Fenomeni | T °C | DP °C | Um. % | Pres. hPa | Vis. km | Vento km/h | |
|---|---|---|---|---|---|---|---|---|
| Oggi h: 00:20 | Nebbia | 13 | 13 | 100 | 1004 | 0.5 | N 1.8 | |
| Ieri h: 23:50 | Banco di nebbia | 14 | 14 | 100 | 1004 | 1 | N 1.8 | |
| Ieri h: 23:20 | Pioggia | 14 | 14 | 100 | 1004 | 1 | N 1.8 | |
| Ieri h: 22:50 | Pioggia | 14 | 14 | 100 | 1004 | 0.45 | N 0 | |
| Ieri h: 22:20 | Nebbia | 14 | 14 | 100 | 1004 | 0.55 | N 1.8 | |
| Ieri h: 21:50 | Banco di nebbia | 15 | 15 | 100 | 1004 | 0.6 | N 1.8 | |
| Ieri h: 21:20 | Banco di nebbia | 15 | 15 | 100 | 1004 | 0.55 | N 1.8 | |
| Ieri h: 20:50 | Nebbia | 16 | 16 | 100 | 1004 | 0.65 | N 1.8 | |
| Ieri h: 20:20 | Molto Nuvoloso | 17 | 16 | 93 | 1004 | 10 | N 1.8 | |
| Ieri h: 19:50 | Molto Nuvoloso | 17 | 16 | 93 | 1003 | 10 | N 5.5 | |
| Ieri h: 19:20 | Molto Nuvoloso | 18 | 16 | 88 | 1003 | 10 | N 5.5 | |
| Ieri h: 18:50 | Molto Nuvoloso | 18 | 16 | 88 | 1003 | 10 | E/SE 7.4 | |
| Ieri h: 18:20 | Pioggia | 18 | 16 | 88 | 1003 | 10 | N 5.5 | |
| Ieri h: 17:50 | Molto Nuvoloso | 18 | 16 | 88 | 1004 | 10 | SE 7.4 | |
| Ieri h: 17:20 | Nuvoloso | 18 | 17 | 93 | 1004 | 10 | N 5.5 | |
| Ieri h: 16:50 | Coperto | 18 | 16 | 88 | 1004 | 10 | S/SE 9.3 | |
| Ieri h: 16:20 | Molto Nuvoloso | 18 | 16 | 88 | 1004 | 10 | S/SE 9.3 | |
| Ieri h: 15:50 | Molto Nuvoloso | 17 | 16 | 93 | 1004 | 10 | S/SE 9.3 | |
| Ieri h: 15:20 | Pioggia | 17 | 16 | 93 | 1004 | 10 | SE 9.3 | |
| Ieri h: 14:50 | Pioggia | 17 | 16 | 93 | 1004 | 4 | SE 18.5 | |
| Ieri h: 14:20 | Molto Nuvoloso | 18 | 16 | 88 | 1004 | 10 | S/SE 11.1 | |
| Ieri h: 13:50 | Coperto | 18 | 16 | 88 | 1004 | 10 | S/SE 13 | |
| Ieri h: 13:20 | Coperto | 18 | 16 | 88 | 1004 | 10 | S 13 | |
| Ieri h: 12:50 | Coperto | 17 | 16 | 93 | 1004 | 10 | S/SE 11.1 | |
| Ieri h: 12:20 | Coperto | 17 | 16 | 93 | 1005 | 10 | S/SE 11.1 | |
| Ieri h: 11:50 | Coperto | 16 | 16 | 100 | 1005 | 10 | S/SE 11.1 | |
| Ieri h: 11:20 | Pioggia | 16 | 15 | 93 | 1005 | 10 | S/SE 11.1 | |
| Ieri h: 10:50 | Pioggia | 16 | 15 | 93 | 1005 | 10 | S/SE 13 | |
| Ieri h: 10:20 | Pioviggine | 15 | 15 | 100 | 1005 | 5 | S/SE 11.1 | |
| Ieri h: 09:50 | Foschia | 15 | 15 | 100 | 1005 | 3 | S/SE 11.1 | |
| Ieri h: 09:20 | Foschia | 15 | 15 | 100 | 1005 | 3 | S/SE 11.1 | |
| Ieri h: 08:50 | Foschia | 15 | 15 | 100 | 1005 | 4 | SE 16.7 | |
| Ieri h: 08:20 | Coperto | 15 | 14 | 93 | 1005 | 9 | SE 16.7 | |
| Ieri h: 07:50 | Pioggia | 15 | 14 | 93 | 1006 | 8 | SE 13 | |
| Ieri h: 07:20 | Pioggia | 14 | 14 | 100 | 1006 | 9 | SE 11.1 | |
| Ieri h: 06:50 | Pioggia | 15 | 14 | 93 | 1006 | 4 | N 5.5 | |
| Ieri h: 06:20 | Pioggia | 14 | 14 | 100 | 1006 | 6 | SE 7.4 | |
| Ieri h: 05:50 | Pioggia | 14 | 14 | 100 | 1006 | 6 | SE 7.4 | |
| Ieri h: 05:20 | Pioggia | 14 | 14 | 100 | 1006 | 6 | S/SE 7.4 | |
| Ieri h: 04:50 | Pioviggine | 14 | 14 | 100 | 1006 | 5 | S/SE 7.4 | |
| Ieri h: 04:20 | Coperto | 14 | 14 | 100 | 1007 | 10 | N 5.5 | |
| Ieri h: 03:50 | Banco di nebbia | 13 | 13 | 100 | 1007 | 0.9 | SE 7.4 | |
| Ieri h: 03:20 | Banco di nebbia | 13 | 13 | 100 | 1007 | 1 | N 5.5 | |
| Ieri h: 02:50 | Banco di nebbia | 12 | 12 | 100 | 1007 | 1 | S/SE 7.4 | |
| Ieri h: 02:20 | Nebbia | 12 | 12 | 100 | 1007 | 0.5 | N 5.5 | |
| Ieri h: 01:50 | Nebbia | 12 | 12 | 100 | 1007 | 0.65 | S/SE 7.4 | |
| Ieri h: 01:20 | Nebbia | 12 | 12 | 100 | 1007 | 0.75 | S/SE 7.4 | |
| Ieri h: 00:50 | Nuvoloso | 14 | 14 | 100 | 1007 | 0.7 | S/SE 7.4 | |



